Location: Ambatotampy
(18.8181°S, 47.6186°E)
Time: 00:11:42
(UTC+00:00)

Cosmos 1484 Rocket - Pass Details

Date: 21 January 2021
Orbit: 505 x 559 km, 97.4° (Epoch: 24 February)

Event Time Altitude Azimuth Distance (km) Brightness Sun altitude
Exits shadow 01:26:48 24° 292° (WNW) 1,112 3.7 -14.2°
Maximum altitude 01:27:18 25° 279° (W) 1,091 3.8 -14.1°
Drops below altitude 10° 01:30:29 10° 222° (SW) 1,768 5.2 -13.4°
Sets 01:32:51 0° 208° (SSW) 2,654 6.3 -12.9°
